• In India
  • List of Countries
  • For 7 days
  • Water Temperature
  • Satellite Maps
  • Weather Map
  • Weather Widgets
  • user-avatar
    Login

    Hourly Weather Manaus

    Today, 19 July, Thursday

    Time Temperature Precipitation Wind Pressure Humidity
    00:00 +27°C° 0 mm 1 mps 755 mmHg 72%
    01:00 +26°C° 0 mm 1 mps 755 mmHg 74%
    02:00 +26°C° 0 mm 1 mps 755 mmHg 76%
    03:00 +25°C° 0 mm 1 mps 755 mmHg 78%
    04:00 +25°C° 0 mm 1 mps 755 mmHg 80%
    05:00 +25°C° 0 mm 1 mps 755 mmHg 81%
    06:00 +26°C° 0 mm 1 mps 755 mmHg 78%
    07:00 +27°C° 0 mm 1 mps 755 mmHg 75%
    08:00 +28°C° 0 mm 1 mps 756 mmHg 72%
    09:00 +30°C° 0 mm 2 mps 756 mmHg 63%
    10:00 +34°C° 0 mm 2 mps 756 mmHg 54%
    11:00 +36°C° 0 mm 2 mps 756 mmHg 44%
    12:00 +36°C° 0 mm 2 mps 755 mmHg 45%
    13:00 +35°C° 0 mm 1 mps 754 mmHg 46%
    14:00 +35°C° 0 mm 1 mps 754 mmHg 46%
    15:00 +34°C° 0 mm 1 mps 753 mmHg 50%
    16:00 +33°C° 0 mm 1 mps 753 mmHg 54%
    17:00 +30°C° 0 mm 0 mps 752 mmHg 58%
    18:00 +31°C° 0 mm 1 mps 753 mmHg 60%
    19:00 +30°C° 0 mm 1 mps 753 mmHg 63%
    20:00 +29°C° 0 mm 1 mps 753 mmHg 65%
    21:00 +28°C° 0 mm 1 mps 754 mmHg 68%
    22:00 +28°C° 0 mm 1 mps 754 mmHg 71%
    23:00 +27°C° 0 mm 1 mps 755 mmHg 73%

    Tomorrow, 20 July, Friday

    Time Temperature Precipitation Wind Pressure Humidity
    00:00 +27°C° 0 mm 1 mps 755 mmHg 75%
    01:00 +26°C° 0 mm 1 mps 754 mmHg 77%
    02:00 +26°C° 0 mm 1 mps 754 mmHg 78%
    03:00 +26°C° 0 mm 1 mps 754 mmHg 79%
    04:00 +26°C° 0 mm 1 mps 754 mmHg 79%
    05:00 +26°C° 0 mm 1 mps 754 mmHg 79%
    06:00 +27°C° 0 mm 1 mps 755 mmHg 77%
    07:00 +28°C° 0 mm 1 mps 755 mmHg 74%
    08:00 +29°C° 0 mm 1 mps 755 mmHg 72%
    09:00 +31°C° 0 mm 1 mps 755 mmHg 63%
    10:00 +34°C° 0 mm 2 mps 755 mmHg 54%
    11:00 +36°C° 0 mm 2 mps 755 mmHg 45%
    12:00 +36°C° 0 mm 2 mps 755 mmHg 45%
    13:00 +36°C° 0 mm 2 mps 754 mmHg 45%
    14:00 +36°C° 0 mm 2 mps 753 mmHg 44%
    15:00 +36°C° 0 mm 2 mps 753 mmHg 48%
    16:00 +34°C° 0 mm 1 mps 753 mmHg 52%
    17:00 +33°C° 0 mm 1 mps 753 mmHg 55%
    18:00 +31°C° 0 mm 1 mps 753 mmHg 60%
    19:00 +30°C° 0 mm 1 mps 754 mmHg 64%
    20:00 +28°C° 0 mm 1 mps 754 mmHg 68%
    21:00 +28°C° 0 mm 1 mps 754 mmHg 70%
    22:00 +27°C° 0 mm 1 mps 755 mmHg 71%
    23:00 +27°C° 0 mm 1 mps 755 mmHg 73%

    Day after tomorrow, 21 July, Saturday

    Time Temperature Precipitation Wind Pressure Humidity
    00:00 +25°C° 0 mm 0 mps 755 mmHg 74%
    01:00 +24°C° 0 mm 0 mps 754 mmHg 76%
    02:00 +24°C° 0 mm 0 mps 754 mmHg 77%
    03:00 +24°C° 0 mm 0 mps 754 mmHg 78%
    04:00 +23°C° 0 mm 0 mps 754 mmHg 79%
    05:00 +23°C° 0 mm 0 mps 754 mmHg 80%
    06:00 +24°C° 0 mm 0 mps 754 mmHg 76%
    07:00 +27°C° 0 mm 1 mps 755 mmHg 72%
    08:00 +29°C° 0 mm 1 mps 756 mmHg 68%
    09:00 +31°C° 0 mm 1 mps 756 mmHg 62%
    10:00 +32°C° 0 mm 2 mps 756 mmHg 55%
    11:00 +35°C° 0 mm 2 mps 756 mmHg 49%
    12:00 +36°C° 0 mm 2 mps 755 mmHg 45%
    13:00 +37°C° 0 mm 2 mps 754 mmHg 42%
    14:00 +38°C° 0 mm 2 mps 753 mmHg 38%
    15:00 +37°C° 0 mm 2 mps 752 mmHg 41%
    16:00 +36°C° 0 mm 1 mps 752 mmHg 44%
    17:00 +35°C° 0 mm 1 mps 751 mmHg 47%
    18:00 +33°C° 0 mm 1 mps 752 mmHg 52%
    19:00 +31°C° 0 mm 1 mps 752 mmHg 57%
    20:00 +29°C° 0 mm 1 mps 753 mmHg 63%
    21:00 +29°C° 0 mm 1 mps 753 mmHg 64%
    22:00 +26°C° 0 mm 0 mps 754 mmHg 66%
    23:00 +26°C° 0 mm 0 mps 754 mmHg 68%

    22 July, Sunday

    Time Temperature Precipitation Wind Pressure Humidity
    00:00 +25°C° 0 mm 0 mps 754 mmHg 70%
    01:00 +25°C° 0 mm 0 mps 754 mmHg 73%
    02:00 +24°C° 0 mm 0 mps 753 mmHg 75%
    03:00 +24°C° 0 mm 0 mps 753 mmHg 76%
    04:00 +26°C° 0 mm 1 mps 753 mmHg 77%
    05:00 +25°C° 0 mm 1 mps 754 mmHg 78%
    06:00 +27°C° 0 mm 1 mps 754 mmHg 74%
    07:00 +28°C° 0 mm 1 mps 755 mmHg 70%
    08:00 +29°C° 0 mm 1 mps 755 mmHg 66%
    09:00 +31°C° 0 mm 1 mps 755 mmHg 58%
    10:00 +34°C° 0 mm 2 mps 755 mmHg 50%
    11:00 +37°C° 0 mm 2 mps 755 mmHg 41%
    12:00 +37°C° 0 mm 2 mps 754 mmHg 39%
    13:00 +38°C° 0 mm 2 mps 753 mmHg 36%
    14:00 +38°C° 0 mm 2 mps 753 mmHg 34%
    15:00 +37°C° 0 mm 1 mps 752 mmHg 38%
    16:00 +36°C° 0 mm 1 mps 752 mmHg 42%
    17:00 +35°C° 0 mm 1 mps 752 mmHg 46%
    18:00 +33°C° 0 mm 1 mps 752 mmHg 50%
    19:00 +31°C° 0 mm 1 mps 753 mmHg 54%
    20:00 +29°C° 0 mm 1 mps 753 mmHg 58%
    21:00 +29°C° 0 mm 1 mps 754 mmHg 60%
    22:00 +28°C° 0 mm 1 mps 754 mmHg 62%
    23:00 +28°C° 0 mm 1 mps 754 mmHg 65%

    23 July, Monday

    Time Temperature Precipitation Wind Pressure Humidity
    00:00 +27°C° 0 mm 1 mps 754 mmHg 65%
    01:00 +27°C° 0 mm 1 mps 754 mmHg 66%
    02:00 +27°C° 0 mm 1 mps 753 mmHg 67%
    03:00 +26°C° 0 mm 1 mps 754 mmHg 69%
    04:00 +26°C° 0 mm 1 mps 754 mmHg 71%
    05:00 +26°C° 0 mm 1 mps 754 mmHg 73%
    06:00 +27°C° 0 mm 1 mps 755 mmHg 70%
    07:00 +28°C° 0 mm 1 mps 756 mmHg 67%
    08:00 +29°C° 0 mm 1 mps 757 mmHg 64%
    09:00 +31°C° 0 mm 1 mps 756 mmHg 56%
    10:00 +35°C° 0 mm 2 mps 756 mmHg 48%
    11:00 +37°C° 0 mm 2 mps 756 mmHg 40%
    12:00 +38°C° 0 mm 2 mps 755 mmHg 37%
    13:00 +39°C° 0 mm 2 mps 754 mmHg 34%
    14:00 +39°C° 0 mm 2 mps 753 mmHg 31%
    15:00 +39°C° 0 mm 2 mps 753 mmHg 34%
    16:00 +37°C° 0 mm 1 mps 753 mmHg 38%
    17:00 +36°C° 0 mm 1 mps 753 mmHg 41%
    18:00 +34°C° 0 mm 1 mps 753 mmHg 46%
    19:00 +32°C° 0 mm 1 mps 754 mmHg 50%
    20:00 +30°C° 0 mm 1 mps 755 mmHg 55%
    21:00 +30°C° 0 mm 1 mps 755 mmHg 56%
    22:00 +30°C° 0 mm 1 mps 755 mmHg 56%
    23:00 +30°C° 0 mm 1 mps 756 mmHg 57%

    24 July, Tuesday

    Time Temperature Precipitation Wind Pressure Humidity
    00:00 +29°C° 0 mm 1 mps 755 mmHg 60%
    01:00 +29°C° 0 mm 1 mps 755 mmHg 62%
    02:00 +28°C° 0 mm 1 mps 755 mmHg 65%
    03:00 +27°C° 0 mm 1 mps 755 mmHg 68%
    04:00 +27°C° 0 mm 1 mps 755 mmHg 71%
    05:00 +24°C° 0 mm 0 mps 755 mmHg 73%
    06:00 +28°C° 0 mm 1 mps 756 mmHg 70%
    07:00 +29°C° 0 mm 1 mps 756 mmHg 66%
    08:00 +30°C° 0 mm 1 mps 757 mmHg 63%
    09:00 +32°C° 0 mm 1 mps 757 mmHg 56%
    10:00 +35°C° 0 mm 2 mps 757 mmHg 48%
    11:00 +37°C° 0 mm 2 mps 756 mmHg 41%
    12:00 +37°C° 0 mm 2 mps 756 mmHg 40%
    13:00 +38°C° 0 mm 2 mps 755 mmHg 39%
    14:00 +38°C° 0 mm 2 mps 754 mmHg 38%
    15:00 +36°C° 0 mm 1 mps 754 mmHg 42%
    16:00 +35°C° 0 mm 1 mps 754 mmHg 46%
    17:00 +34°C° 0 mm 1 mps 754 mmHg 49%
    18:00 +33°C° 0 mm 1 mps 754 mmHg 53%
    19:00 +31°C° 0 mm 1 mps 755 mmHg 57%
    20:00 +28°C° 0 mm 0 mps 755 mmHg 60%
    21:00 +27°C° 0 mm 0 mps 756 mmHg 62%
    22:00 +27°C° 0 mm 0 mps 756 mmHg 64%
    23:00 +26°C° 0 mm 0 mps 756 mmHg 66%
    Show more